#timestamp,LO_Frequency,Hit 
1503345615.7,286047005.3,N
1503345635.6,286047003.9,N
1503345655.4,286047001.5,N
1503345675.2,286047007.4,P
1503345695.1,286047004.8,N
1503345696.0,286047004.8,N
1503345715.8,286047005.5,N
1503345735.6,286047004.3,N
1503345755.5,286047000.2,N
1503345775.3,286047000.9,N
1503345795.1,286046998.3,N
1503345815.9,286046998.2,N
1503345835.7,286046998.7,N
1503345855.5,286046995.3,N
1503345875.4,286047001.2,N
1503345895.2,286046998.7,N
1503345915.0,286046996.6,N
1503345915.9,286046996.6,N
1503345935.8,286046996.9,N
1503345955.6,286046996.8,N
1503345975.4,286046997.2,N
1503345995.2,286046996.7,N
1503346015.1,286046998.8,N
1503346016.0,286046998.8,N
1503346035.8,286046999.0,N
1503346055.6,286046995.9,N
1503346075.5,286046995.5,N
1503346095.3,286046996.5,N
1503346115.1,286046997.4,N
1503346135.9,286046995.4,N
1503346155.7,286046998.0,N
1503346175.5,286046997.1,N
1503346195.4,286046997.0,N
1503346215.2,286046994.6,N
1503346235.0,286046993.3,N
1503346235.9,286046993.3,N
1503346255.8,286046993.5,N
1503346275.6,286046995.5,N
1503346295.4,286046995.5,N
1503346315.3,286046999.2,N
1503346335.1,286047000.4,N
1503346336.0,286047000.4,N
1503346355.8,286047004.1,N
1503346375.7,286047002.5,N
1503346395.5,286046999.0,N
1503346415.3,286046997.4,N
1503346435.1,286046997.9,N
1503346455.9,286046995.0,N
1503346475.7,286046998.0,N
1503346495.5,286046995.5,N
1503346515.4,286046995.8,N
1503346535.2,286046999.4,N
1503346555.0,286046999.1,N
1503346555.9,286046999.1,N
1503346575.8,286047002.4,N
1503346595.6,286047001.9,N
1503346615.4,286047004.1,N
1503346635.3,286047007.2,N
1503346655.1,286047004.8,N
1503346656.0,286047004.8,N
1503346675.8,286047003.4,N
1503346695.7,286047002.9,N
1503346715.5,286047003.8,N
1503346735.3,286047003.3,N
1503346755.2,286047003.5,N
1503346775.9,286047003.0,N
1503346795.7,286047005.9,N
1503346815.6,286047001.3,N
1503346835.4,286047002.5,N
1503346855.2,286047002.2,N
1503346875.0,286047001.9,N
1503346875.9,286047001.9,N
1503346895.8,286047001.6,N
1503346915.6,286047001.1,N
1503346935.4,286047004.3,N
1503346955.3,286047003.2,N
1503346975.1,286047008.8,N
1503346995.8,286047008.5,N
1503347015.7,286047006.2,N
1503347035.5,286047008.9,N
1503347055.3,286047006.1,N
1503347075.2,286047006.9,N
1503347095.9,286047005.5,N
1503347115.7,286047002.9,N
1503347135.6,286047005.0,N
1503347155.4,286047004.9,N
1503347175.2,286047005.9,N
1503347195.1,286047001.6,N
1503347196.0,286047001.6,N
1503347215.8,286047003.8,N
1503347235.6,286047005.7,N
1503347255.4,286047003.7,N
1503347275.3,286047001.4,N
1503347295.1,286047003.8,N
1503347315.8,286047006.3,N
1503347335.7,286047007.5,P
1503347355.5,286047002.2,N
1503347375.3,286047000.3,N
1503347395.2,286046996.5,N
1503347415.0,286046998.7,N
1503347415.9,286046998.7,N
1503347435.7,286046998.8,N
1503347455.6,286047002.1,N
1503347475.4,286047000.8,N
1503347495.2,286047002.6,N
1503347515.1,286047002.9,N
1503347516.0,286047002.9,N
1503347535.8,286047006.6,N
1503347555.6,286047009.0,P
1503347575.5,286047005.4,N
1503347595.3,286047004.9,N
1503347615.1,286047007.4,N
1503347635.9,286047004.7,N
1503347655.7,286047002.9,N
1503347675.5,286047003.1,N
1503347695.4,286047003.7,N
1503347715.2,286047002.6,N
1503347735.0,286047002.8,N
1503347735.9,286047002.8,N
1503347755.8,286047005.9,N
1503347775.6,286047004.3,N
1503347795.4,286047004.4,N
1503347815.3,286047004.1,N
1503347835.1,286047003.0,N
1503347836.0,286047003.0,N
1503347855.8,286047005.8,P
1503347875.7,286047000.0,N
1503347895.5,286046996.8,N
1503347915.3,286046996.6,N
1503347935.2,286047000.5,N
1503347955.9,286047003.3,N
1503347975.7,286047004.9,N
1503347995.5,286047001.5,N
1503348015.4,286047002.4,N
1503348035.2,286046998.1,N
1503348055.0,286046996.8,N
1503348055.9,286046996.8,N
1503348075.8,286046995.0,N
1503348095.6,286046996.9,N
1503348115.4,286046998.6,N
1503348135.3,286046999.5,N
1503348155.1,286046997.1,N
1503348156.0,286046997.1,N
1503348175.8,286046998.9,N
1503348195.7,286047001.1,N
1503348215.5,286046997.0,N
1503348235.3,286046995.6,N
1503348255.2,286046995.1,N
1503348275.9,286046994.5,N
1503348295.7,286046991.8,N
1503348315.5,286046992.7,N
1503348335.4,286046991.2,N
1503348355.2,286046992.4,N
1503348375.0,286046993.0,N
1503348375.9,286046993.0,N
1503348395.8,286046992.5,N
1503348415.6,286046989.9,N
1503348435.4,286046988.7,P
1503348455.3,286046993.9,N
1503348475.1,286046994.8,N
1503348495.8,286046995.5,N
1503348515.7,286046992.5,N
1503348535.5,286046993.1,N
1503348555.3,286046992.1,P
1503348575.2,286046996.6,P
1503348595.0,286046999.1,N
1503348595.9,286046999.1,N
1503348615.7,286046995.2,N
1503348635.6,286046995.1,N
1503348655.4,286046996.3,N
1503348675.2,286046993.5,N
1503348695.1,286046994.4,N
1503348696.0,286046994.4,N
1503348715.8,286046995.2,N
1503348735.6,286046998.2,N
1503348755.5,286047000.9,N
1503348775.3,286046998.5,N
1503348795.1,286047000.9,N
1503348815.9,286047002.7,N
1503348835.7,286046999.2,N
1503348855.5,286046998.9,N
1503348875.3,286046999.4,N
1503348895.2,286046996.5,N
1503348915.0,286046998.3,N
1503348915.9,286046998.3,N
1503348935.7,286047002.3,N
1503348955.6,286047002.7,N
1503348975.4,286047002.1,N
1503348995.2,286047002.0,N
1503349015.1,286047000.7,N
1503349016.0,286047000.7,N
1503349035.8,286046998.2,N
1503349055.6,286047001.3,N
1503349075.5,286047007.1,N
1503349095.3,286047007.4,N
1503349115.1,286047005.8,N
1503349135.9,286047005.5,N
1503349155.7,286047006.6,N
1503349175.5,286047004.9,N
1503349195.4,286047005.9,N
